Regional Weather Roundup
Issued by NWS

Home | Current Version | Previous Version | Text Only | Print | Product List | Glossary Off
Versions: 1 2 3 4 5 6 7 8 9 10 11 12 13 14 15 16 17 18 19 20 21 22 23 24 25 26 27 28 29 30 31 32 33 34 35 36 37 38 39 40 41 42 43 44 45 46 47 48 49 50

000
ASUS43 KOAX 271010
RWRNE

WEATHER ROUNDUP FOR NEBRASKA
NATIONAL WEATHER SERVICE OMAHA NE
400 AM CST TUE JAN 27 2015

NOTES: SATELLITE DATA IS BEING USED TO AUGMENT CLOUD COVER ABOVE
       12000 FEET.
       "FAIR" INDICATES FEW OR NO CLOUDS BELOW 12,000 FEET WITH NO
       SIGNIFICANT WEATHER AND/OR OBSTRUCTIONS TO VISIBILITY.

  * THESE STATIONS DO NOT REPORT WEATHER SUCH AS RAIN...SNOW OR FOG.

NEZ001>004-019>022-054>056-271100-
NEBRASKA PANHANDLE

CITY           SKY/WX    TMP DP  RH WIND       PRES   REMARKS
SCOTTSBLUFF    PTCLDY    32  28  85 N5        30.08F WCI  27
ALLIANCE       CLEAR     28  25  88 W7        30.06F WCI  21
CHADRON        CLEAR     34  27  75 SW9       30.04S WCI  27
KIMBALL        CLEAR     40  26  55 W10       30.10F WCI  34
SIDNEY         PTCLDY    35  27  72 W8        30.10F WCI  29
$$

NEZ057>060-069>072-079>082-271100-
SOUTHWEST NEBRASKA

CITY           SKY/WX    TMP DP  RH WIND       PRES   REMARKS
NORTH PLATTE   PTCLDY    25  22  88 W6        30.06F WCI  18
IMPERIAL       PTCLDY    33  26  75 CALM      30.08F
LEXINGTON      CLEAR     29  26  89 W8        30.05F WCI  21
MCCOOK         PTCLDY    33  27  78 W5        30.08S WCI  29
OGALLALA       PTCLDY    29  27  94 W6        30.07F WCI  22
$$

NEZ005>010-023>029-035>040-094-271100-
NORTH CENTRAL NEBRASKA

CITY           SKY/WX    TMP DP  RH WIND       PRES   REMARKS
VALENTINE      CLEAR     28  26  92 SW6       29.99F WCI  22
AINSWORTH      CLEAR     36  31  81 SW6       29.99F WCI  32
BROKEN BOW     CLEAR     31  26  82 CALM      30.02F
O`NEILL        CLEAR     32  29  88 S5        30.02F WCI  27
ORD            CLEAR     26  22  84 CALM      30.03F
THEDFORD       CLEAR     32  30  92 W3        30.02F
$$

NEZ041-046>049-061>064-073>077-083>087-271100-
SOUTH CENTRAL NEBRASKA

CITY           SKY/WX    TMP DP  RH WIND       PRES   REMARKS
GRAND ISLAND   CLEAR     28  24  85 CALM      30.06F
AURORA         CLEAR     31  27  87 CALM      30.06F
HASTINGS       PTCLDY    30  24  78 CALM      30.06S
HEBRON         PTCLDY    27  24  87 CALM      30.09S
HOLDREGE       PTCLDY    38  28  66 SW7       30.05F WCI  33
KEARNEY *      PTCLDY    30  25  80 CALM      30.05F
YORK           CLEAR     32  27  80 CALM      30.07F
$$

NEZ011>018-030>034-042>045-271100-
NORTHEAST NEBRASKA

CITY           SKY/WX    TMP DP  RH WIND       PRES   REMARKS
NORFOLK        CLEAR     26  24  92 CALM      30.05F
ALBION         CLEAR     26  22  87 CALM      30.05F
BLAIR          CLEAR     36  32  85 N6        30.06S WCI  31
COLUMBUS *     CLEAR     25  18  74 CALM      30.08F
FREMONT        CLEAR     29  28  93 W3        30.07S
TEKAMAH        CLEAR     28  25  88 CALM      30.08S
WAYNE          CLEAR     24  22  94 CALM      30.07S
$$

NEZ050>053-065>068-078-088>093-271100-
SOUTHEAST NEBRASKA

CITY           SKY/WX    TMP DP  RH WIND       PRES   REMARKS
LINCOLN        CLEAR     27  23  85 CALM      30.09F
OMAHA EPPLEY   CLEAR     30  28  92 CALM      30.07F
BEATRICE       CLEAR     28  24  86 CALM      30.09S
FALLS CITY     CLEAR     31  27  85 W5        30.08S WCI  26
NEBRASKA CITY  CLEAR     34  29  81 N3        30.08S
PLATTSMOUTH    CLEAR     34  31  86 CALM      30.07S
$$

NEZ044-045-051>053-067-271100-
OMAHA AREA

CITY           SKY/WX    TMP DP  RH WIND       PRES   REMARKS
OMAHA EPPLEY   CLEAR     30  28  92 CALM      30.07F
BLAIR          CLEAR     36  32  85 N6        30.06S WCI  31
FREMONT        CLEAR     29  28  93 W3        30.07S
MILLARD        CLEAR     31  29  92 CALM      30.08R
OFFUTT AFB     CLEAR     28  26  96 NW1       30.07S
PLATTSMOUTH    CLEAR     34  31  86 CALM      30.07S
WAHOO          FAIR      29  25  85 CALM      30.08R
$$



USA.gov is the U.S. government's official web portal to all federal, state and local government web resources and services.